Waupaca, WI

11:35 AM CDT on April 28, 2017 (GMT -0500)
Waupaca Municipal

Weather History for KPCZ - December, 2013

Change the Weather History Date:

Saturday, December 7, 2013

  Actual Average Record
Temperature  
Mean Temperature 4 °F -  
Max Temperature 11 °F 30 °F 50 °F (1988)
Min Temperature -2 °F 14 °F -18 °F (1972)
Degree Days  
Heating Degree Days 60    
Moisture  
Dew Point -6 °F    
Average Humidity 66    
Maximum Humidity 78    
Minimum Humidity 49    
Precipitation  
Precipitation 0.00 in - - ()
Sea Level Pressure  
Sea Level Pressure 30.60 in    
Wind  
Wind Speed 6 mph (West)    
Max Wind Speed 10 mph    
Max Gust Speed 16 mph    
Visibility 10 miles    
Events      
Averages and records for this station are not official NWS values.
T = Trace of Precipitation, MM = Missing Value Source: NWS Daily Summary

Daily Weather History Graph

Daily Weather History Graph

Search for Another Location

Airport or City:

Trip Planner

Search our weather history database for the weather conditions in past years. The results will help you decide how hot, cold, wet, or windy it might be!

Date:

Astronomy

Dec. 07, 2013 Rise Set
Actual Time 7:18 AM CST 4:16 PM CST
Civil Twilight 6:45 AM CST 4:49 PM CST
Nautical Twilight 6:08 AM CST 5:26 PM CST
Astronomical Twilight 5:33 AM CST 6:01 PM CST
Moon 10:55 AM CST (12/7) 10:07 PM CST (12/7)
Length of Visible Light 10h 04m
Length of Day
8h 58m
Waxing Crescent, 29% of the Moon is Illuminated
Dec 7
Waxing Crescent
Dec 9
First Quarter
Dec 17
Full
Dec 25
Last Quarter
Jan 1
New

Hourly Weather History & Observations

Time (CST) Temp. Windchill Dew Point Humidity Pressure Visibility Wind Dir Wind Speed Gust Speed Precip Events Conditions
12:15 AM 3.0 °F -10.5 °F -4.9 °F 70% 30.52 in 10.0 mi WNW 8.1 mph 16.1 mph N/A   Clear
12:35 AM 2.7 °F -9.7 °F -5.1 °F 70% 30.53 in 10.0 mi WNW 6.9 mph - N/A   Clear
12:55 AM 2.3 °F -11.4 °F -5.6 °F 70% 30.54 in 10.0 mi WNW 8.1 mph - N/A   Clear
1:15 AM 2.1 °F -11.6 °F -5.8 °F 69% 30.54 in 10.0 mi WNW 8.1 mph - N/A   Clear
1:35 AM 1.8 °F -10.8 °F -5.8 °F 71% 30.55 in 10.0 mi WNW 6.9 mph - N/A   Clear
1:55 AM 1.4 °F -12.5 °F -6.3 °F 70% 30.55 in 10.0 mi West 8.1 mph - N/A   Clear
2:15 AM 1.4 °F -13.5 °F -6.7 °F 69% 30.55 in 10.0 mi WNW 9.2 mph - N/A   Clear
2:35 AM 1.0 °F -11.7 °F -6.7 °F 70% 30.56 in 10.0 mi WNW 6.9 mph - N/A   Clear
2:55 AM 0.7 °F -10.7 °F -6.7 °F 71% 30.57 in 10.0 mi West 5.8 mph - N/A   Clear
3:15 AM 0.5 °F -11.0 °F -6.9 °F 71% 30.58 in 10.0 mi West 5.8 mph - N/A   Clear
3:35 AM 0.3 °F -12.6 °F -6.9 °F 72% 30.58 in 10.0 mi West 6.9 mph - N/A   Clear
3:55 AM -0.0 °F -11.6 °F -7.6 °F 70% 30.58 in 10.0 mi West 5.8 mph - N/A   Clear
4:15 AM -0.4 °F -13.4 °F -7.6 °F 72% 30.58 in 10.0 mi West 6.9 mph - N/A   Clear
4:35 AM -0.6 °F -13.6 °F -7.6 °F 72% 30.58 in 10.0 mi WNW 6.9 mph - N/A   Clear
4:55 AM -0.6 °F -12.2 °F -7.8 °F 72% 30.59 in 10.0 mi West 5.8 mph - N/A   Clear
5:15 AM -0.9 °F -14.1 °F -7.8 °F 73% 30.59 in 10.0 mi West 6.9 mph - N/A   Clear
5:35 AM -1.3 °F -13.1 °F -8.0 °F 73% 30.59 in 10.0 mi WNW 5.8 mph - N/A   Clear
5:55 AM -1.3 °F -13.1 °F -8.0 °F 73% 30.60 in 10.0 mi West 5.8 mph - N/A   Clear
6:15 AM -1.7 °F -13.5 °F -8.1 °F 74% 30.61 in 10.0 mi West 5.8 mph - N/A   Clear
6:35 AM -1.7 °F -13.5 °F -8.1 °F 74% 30.61 in 10.0 mi West 5.8 mph - N/A   Clear
6:55 AM -1.8 °F -15.2 °F -8.5 °F 73% 30.61 in 10.0 mi West 6.9 mph - N/A   Clear
7:15 AM -2.2 °F -14.2 °F -8.5 °F 75% 30.61 in 10.0 mi West 5.8 mph - N/A   Clear
7:35 AM -2.2 °F -14.2 °F -8.7 °F 74% 30.62 in 10.0 mi West 5.8 mph - N/A   Clear
7:55 AM -1.7 °F -14.9 °F -8.5 °F 73% 30.62 in 10.0 mi West 6.9 mph - N/A   Clear
8:15 AM -1.1 °F -12.9 °F -8.3 °F 72% 30.63 in 10.0 mi West 5.8 mph - N/A   Clear
8:35 AM -0.4 °F -14.7 °F -8.3 °F 69% 30.64 in 10.0 mi West 8.1 mph - N/A   Clear
8:55 AM 0.1 °F -14.0 °F -8.0 °F 69% 30.65 in 10.0 mi West 8.1 mph - N/A   Clear
9:15 AM 1.0 °F -14.0 °F -8.0 °F 66% 30.65 in 10.0 mi West 9.2 mph - N/A   Clear
9:35 AM 1.9 °F -12.9 °F -7.6 °F 64% 30.66 in 10.0 mi West 9.2 mph - N/A   Clear
9:55 AM 3.0 °F -6.4 °F -7.2 °F 62% 30.65 in 10.0 mi West 4.6 mph - N/A   Clear
10:15 AM 4.1 °F -8.0 °F -6.5 °F 61% 30.66 in 10.0 mi West 6.9 mph - N/A   Clear
10:35 AM 5.0 °F -6.9 °F -6.5 °F 59% 30.66 in 10.0 mi West 6.9 mph - N/A   Clear
10:55 AM 6.1 °F -5.6 °F -6.0 °F 58% 30.66 in 10.0 mi West 6.9 mph - N/A   Clear
11:15 AM 6.6 °F -7.1 °F -5.6 °F 57% 30.65 in 10.0 mi West 9.2 mph - N/A   Clear
11:35 AM 7.3 °F -6.2 °F -5.6 °F 56% 30.65 in 10.0 mi WSW 9.2 mph - N/A   Clear
11:55 AM 8.1 °F -4.3 °F -4.7 °F 56% 30.64 in 10.0 mi West 8.1 mph - N/A   Clear
12:15 PM 8.6 °F -3.7 °F -4.4 °F 56% 30.63 in 10.0 mi West 8.1 mph - N/A   Clear
12:35 PM 8.6 °F -4.7 °F -4.9 °F 54% 30.62 in 10.0 mi West 9.2 mph - N/A   Clear
12:55 PM 9.5 °F -2.6 °F -4.7 °F 53% 30.62 in 10.0 mi West 8.1 mph - N/A   Clear
1:15 PM 10.0 °F -1.9 °F -4.2 °F 53% 30.62 in 10.0 mi West 8.1 mph - N/A   Clear
1:35 PM 10.2 °F -2.7 °F -4.2 °F 52% 30.61 in 10.0 mi WSW 9.2 mph - N/A   Clear
1:55 PM 10.6 °F -3.1 °F -3.6 °F 53% 30.61 in 10.0 mi WSW 10.4 mph - N/A   Clear
2:15 PM 10.9 °F -0.8 °F -4.0 °F 51% 30.61 in 10.0 mi West 8.1 mph - N/A   Clear
2:35 PM 11.1 °F 1.7 °F -4.2 °F 50% 30.61 in 10.0 mi West 5.8 mph - N/A   Clear
2:55 PM 11.1 °F 0.4 °F -4.7 °F 49% 30.60 in 10.0 mi West 6.9 mph - N/A   Clear
3:15 PM 10.9 °F -1.8 °F -4.9 °F 49% 30.61 in 10.0 mi West 9.2 mph - N/A   Clear
3:35 PM 10.6 °F -3.1 °F -4.5 °F 51% 30.61 in 10.0 mi WSW 10.4 mph - N/A   Clear
3:55 PM 10.0 °F -3.7 °F -5.4 °F 50% 30.61 in 10.0 mi West 10.4 mph - N/A   Clear
4:15 PM 9.1 °F 0.8 °F -5.1 °F 53% 30.61 in 10.0 mi West 4.6 mph - N/A   Clear
4:35 PM 8.2 °F -1.8 °F -4.9 °F 55% 30.60 in 10.0 mi West 5.8 mph - N/A   Clear
4:55 PM 7.7 °F -0.9 °F -4.4 °F 58% 30.60 in 10.0 mi West 4.6 mph - N/A   Clear
5:15 PM 7.0 °F -1.7 °F -4.5 °F 59% 30.60 in 10.0 mi West 4.6 mph - N/A   Clear
5:35 PM 6.8 °F -0.1 °F -4.4 °F 60% 30.60 in 10.0 mi West 3.5 mph - N/A   Clear
5:55 PM 6.6 °F -0.3 °F -4.5 °F 60% 30.60 in 10.0 mi West 3.5 mph - N/A   Clear
6:15 PM 5.9 °F - -4.5 °F 62% 30.60 in 10.0 mi Calm Calm - N/A   Clear
6:35 PM 6.3 °F - -4.5 °F 61% 30.60 in 10.0 mi Calm Calm - N/A   Clear
6:55 PM 5.0 °F - -4.4 °F 65% 30.59 in 10.0 mi Calm Calm - N/A   Clear
7:15 PM 5.2 °F - -4.5 °F 64% 30.60 in 10.0 mi Calm Calm - N/A   Clear
7:35 PM 3.7 °F - -4.4 °F 69% 30.59 in 10.0 mi Calm Calm - N/A   Clear
7:55 PM 3.2 °F - -4.0 °F 72% 30.59 in 10.0 mi Calm Calm - N/A   Clear
8:15 PM 2.3 °F - -4.2 °F 74% 30.58 in 10.0 mi Calm Calm - N/A   Clear
8:35 PM 1.6 °F - -3.8 °F 78% 30.58 in 10.0 mi Calm Calm - N/A   Clear
8:55 PM 2.3 °F - -3.1 °F 78% 30.58 in 10.0 mi Calm Calm - N/A   Clear
9:15 PM 2.3 °F -5.2 °F -4.0 °F 75% 30.58 in 10.0 mi WNW 3.5 mph - N/A   Clear
9:35 PM 1.2 °F -6.4 °F -5.8 °F 72% 30.58 in 10.0 mi SW 3.5 mph - N/A   Clear
9:55 PM -0.0 °F - -5.8 °F 77% 30.58 in 10.0 mi Calm Calm - N/A   Clear
10:15 PM 1.4 °F -6.2 °F -4.7 °F 76% 30.57 in 10.0 mi WSW 3.5 mph - N/A   Clear
10:35 PM 1.4 °F - -5.1 °F 74% 30.57 in 10.0 mi Calm Calm - N/A   Clear
10:55 PM 0.5 °F - -5.8 °F 75% 30.57 in 10.0 mi Calm Calm - N/A   Clear
11:15 PM 1.2 °F - -5.1 °F 75% 30.56 in 10.0 mi Calm Calm - N/A   Clear
11:35 PM 1.0 °F - -4.7 °F 77% 30.57 in 10.0 mi Calm Calm - N/A   Clear
11:55 PM 0.5 °F - -5.3 °F 77% 30.58 in 10.0 mi Calm Calm - N/A   Clear